^^
Saratoga-Weather Station Historical Data
Daily Summary for July 03, 2022 Units:  English    Metric   Both
Daily Weekly Monthly Yearly Custom
  High: Low: Average:
Temperature: 83.5 °F 57.2 °F 71.4 °F
Dew Point: 58.8 °F 52.3 °F 54.9 °F
Humidity: 85% 37% 58%
Wind Speed: 13mph 0mph 2.6mph
Wind Gust: 14mph - -
Wind- - WSW
Pressure: 30.1 in 30 in -
Precipitation: 0 in    
Historical Graphs
 
 
Tabular Data for July 03, 2022
Time Temperature Dew Point Pressure Wind Wind Speed Wind Gust Humidity Rainfall Rate (Hourly) solar
00:04 65.7 °F 53.6 °F 30 in Calm     65% 0 in 0 W/m2
00:09 65.5 °F 53.8 °F 30 in WSW 0.9 mph 1 mph 66% 0 in 0 W/m2
00:14 65.5 °F 53.8 °F 30 in Calm   1 mph 66% 0 in 0 W/m2
00:19 65.3 °F 53.6 °F 30 in WSW 0.9 mph 1 mph 66% 0 in 0 W/m2
00:24 65.1 °F 53.4 °F 30 in Calm   1 mph 66% 0 in 0 W/m2
00:29 64.9 °F 53.8 °F 30 in WSW 0.9 mph 1 mph 67% 0 in 0 W/m2
00:34 64.8 °F 53.6 °F 30 in Calm   2 mph 67% 0 in 0 W/m2
00:39 64.8 °F 53.6 °F 30 in Calm   2 mph 67% 0 in 0 W/m2
00:44 64.9 °F 53.8 °F 30 in Calm   1 mph 67% 0 in 0 W/m2
00:49 64.9 °F 53.8 °F 30 in Calm     67% 0 in 0 W/m2
00:54 64.9 °F 53.8 °F 30 in SW 0.9 mph 1 mph 67% 0 in 0 W/m2
00:59 64.9 °F 53.8 °F 30 in Calm     67% 0 in 0 W/m2
01:04 64.9 °F 53.8 °F 30 in Calm     67% 0 in 0 W/m2
01:10 64.8 °F 54 °F 30 in Calm     68% 0 in 0 W/m2
01:15 64.8 °F 54 °F 30 in Calm   1 mph 68% 0 in 0 W/m2
01:20 64.6 °F 53.8 °F 30 in Calm   1 mph 68% 0 in 0 W/m2
01:25 64.4 °F 54 °F 30 in Calm     69% 0 in 0 W/m2
01:30 64.2 °F 53.8 °F 30 in Calm   1 mph 69% 0 in 0 W/m2
01:35 64 °F 53.6 °F 30 in Calm     69% 0 in 0 W/m2
01:40 63.9 °F 54 °F 30 in Calm     70% 0 in 0 W/m2
01:45 63.7 °F 53.8 °F 30 in Calm     70% 0 in 0 W/m2
01:50 63.3 °F 53.8 °F 30 in Calm     71% 0 in 0 W/m2
01:55 63.1 °F 53.6 °F 30 in Calm     71% 0 in 0 W/m2
02:00 63.1 °F 54 °F 30 in Calm     72% 0 in 0 W/m2
02:05 63 °F 53.8 °F 30 in Calm     72% 0 in 0 W/m2
02:10 62.6 °F 53.4 °F 30 in Calm     72% 0 in 0 W/m2
02:15 62.2 °F 53.4 °F 30 in Calm     73% 0 in 0 W/m2
02:20 62.1 °F 53.2 °F 30 in Calm     73% 0 in 0 W/m2
02:25 61.9 °F 53.4 °F 30 in Calm     74% 0 in 0 W/m2
02:30 61.5 °F 53.6 °F 30 in Calm     75% 0 in 0 W/m2
02:35 61.3 °F 53.4 °F 30 in Calm     75% 0 in 0 W/m2
02:40 61.2 °F 53.2 °F 30 in Calm     75% 0 in 0 W/m2
02:45 61.2 °F 53.6 °F 30 in Calm     76% 0 in 0 W/m2
02:50 61 °F 53.4 °F 30 in Calm     76% 0 in 0 W/m2
02:55 60.6 °F 53.1 °F 30 in Calm     76% 0 in 0 W/m2
03:00 60.4 °F 53.2 °F 30 in Calm     77% 0 in 0 W/m2
03:05 60.3 °F 53.4 °F 30 in Calm     78% 0 in 0 W/m2
03:10 60.1 °F 53.2 °F 30 in Calm   1 mph 78% 0 in 0 W/m2
03:15 60.1 °F 53.2 °F 30 in Calm     78% 0 in 0 W/m2
03:20 59.7 °F 52.9 °F 30 in Calm   1 mph 78% 0 in 0 W/m2
03:25 59.5 °F 53.1 °F 30 in Calm     79% 0 in 0 W/m2
03:30 59.5 °F 53.1 °F 30 in Calm     79% 0 in 0 W/m2
03:35 59.4 °F 52.9 °F 30 in Calm     79% 0 in 0 W/m2
03:40 59.2 °F 52.7 °F 30 in Calm     79% 0 in 0 W/m2
03:45 59.2 °F 52.7 °F 30 in Calm     79% 0 in 0 W/m2
03:50 59.2 °F 53.1 °F 30 in Calm     80% 0 in 0 W/m2
03:55 59.2 °F 53.1 °F 30 in Calm     80% 0 in 0 W/m2
04:00 59.2 °F 53.1 °F 30 in Calm     80% 0 in 0 W/m2
04:05 59 °F 52.9 °F 30 in Calm     80% 0 in 0 W/m2
04:10 59 °F 52.9 °F 30 in Calm     80% 0 in 0 W/m2
04:15 58.8 °F 53.1 °F 30 in Calm     81% 0 in 0 W/m2
04:20 58.8 °F 53.1 °F 30 in Calm     81% 0 in 0 W/m2
04:25 59 °F 52.9 °F 30 in Calm     80% 0 in 0 W/m2
04:30 59 °F 52.9 °F 30 in Calm     80% 0 in 0 W/m2
04:35 59 °F 52.9 °F 30 in Calm     80% 0 in 0 W/m2
04:40 58.8 °F 52.7 °F 30 in Calm     80% 0 in 0 W/m2
04:45 58.8 °F 53.1 °F 30 in Calm     81% 0 in 0 W/m2
04:50 58.6 °F 52.9 °F 30 in Calm     81% 0 in 0 W/m2
04:55 58.5 °F 52.7 °F 30 in Calm     81% 0 in 0 W/m2
05:01 58.5 °F 52.7 °F 30 in Calm     81% 0 in 0 W/m2
05:06 58.3 °F 52.5 °F 30 in Calm     81% 0 in 0 W/m2
05:11 58.1 °F 52.3 °F 30 in Calm     81% 0 in 0 W/m2
05:16 57.9 °F 52.5 °F 30 in Calm     82% 0 in 0 W/m2
05:21 57.7 °F 52.3 °F 30 in Calm     82% 0 in 0 W/m2
05:26 57.7 °F 52.7 °F 30 in Calm     83% 0 in 0 W/m2
05:31 57.6 °F 52.5 °F 30 in Calm     83% 0 in 0 W/m2
05:36 57.4 °F 52.3 °F 30 in Calm     83% 0 in 0 W/m2
05:41 57.4 °F 52.5 °F 30 in Calm     84% 0 in 5 W/m2
05:46 57.4 °F 52.3 °F 30 in Calm     83% 0 in 7 W/m2
05:51 57.4 °F 52.5 °F 30 in Calm     84% 0 in 9 W/m2
05:56 57.2 °F 52.3 °F 30 in Calm     84% 0 in 11 W/m2
06:01 57.2 °F 52.3 °F 30 in Calm     84% 0 in 12 W/m2
06:06 57.4 °F 52.9 °F 30 in Calm   1 mph 85% 0 in 14 W/m2
06:11 57.4 °F 52.5 °F 30 in SW 0.9 mph 1 mph 84% 0 in 14 W/m2
06:16 57.6 °F 52.7 °F 30 in Calm     84% 0 in 16 W/m2
06:21 57.6 °F 52.7 °F 30 in Calm     84% 0 in 18 W/m2
06:26 57.7 °F 52.9 °F 30 in Calm     84% 0 in 19 W/m2
06:31 57.9 °F 53.1 °F 30 in Calm   1 mph 84% 0 in 21 W/m2
06:36 57.9 °F 53.1 °F 30 in Calm     84% 0 in 21 W/m2
06:41 58.3 °F 53.4 °F 30 in Calm   1 mph 84% 0 in 23 W/m2
06:46 58.5 °F 53.6 °F 30 in Calm     84% 0 in 23 W/m2
06:51 58.8 °F 53.6 °F 30 in Calm     83% 0 in 25 W/m2
06:56 59.2 °F 53.6 °F 30 in Calm   1 mph 82% 0 in 25 W/m2
07:01 59.5 °F 54 °F 30 in Calm     82% 0 in 26 W/m2
07:06 59.9 °F 54.1 °F 30 in Calm     81% 0 in 26 W/m2
07:11 60.3 °F 54.1 °F 30 in Calm   1 mph 80% 0 in 28 W/m2
07:16 60.4 °F 54.3 °F 30 in Calm     80% 0 in 28 W/m2
07:21 60.8 °F 54.7 °F 30 in Calm   1 mph 80% 0 in 72 W/m2
07:26 61.3 °F 54.9 °F 30 in Calm     79% 0 in 169 W/m2
07:31 62.1 °F 55.4 °F 30 in Calm     79% 0 in 185 W/m2
07:36 63.1 °F 55.8 °F 30 in Calm     77% 0 in 200 W/m2
07:41 64.9 °F 56.1 °F 30 in West 0.9 mph 1 mph 73% 0 in 213 W/m2
07:46 66.4 °F 56.3 °F 30 in Calm   1 mph 70% 0 in 230 W/m2
07:51 67.1 °F 56.1 °F 30 in Calm   1 mph 68% 0 in 244 W/m2
07:56 68.4 °F 56.5 °F 30 in Calm     66% 0 in 257 W/m2
08:01 69.1 °F 56.8 °F 30 in Calm     65% 0 in 271 W/m2
08:06 70 °F 56.8 °F 30 in Calm   1 mph 63% 0 in 283 W/m2
08:11 70.3 °F 57.2 °F 30 in Calm     63% 0 in 295 W/m2
08:16 70.9 °F 57.7 °F 30 in NNW 0.9 mph 2 mph 63% 0 in 313 W/m2
08:21 71.4 °F 56.8 °F 30 in ENE 0.9 mph 2 mph 60% 0 in 325 W/m2
08:26 72 °F 57.4 °F 30 in NE 0.9 mph 2 mph 60% 0 in 244 W/m2
08:31 72.1 °F 57 °F 30 in NNE 2 mph 2 mph 59% 0 in 86 W/m2
08:36 72.3 °F 57.2 °F 30 in Calm   2 mph 59% 0 in 76 W/m2
08:41 73 °F 57.9 °F 30 in Calm   1 mph 59% 0 in 44 W/m2
08:46 73.2 °F 57 °F 30 in WNW 0.9 mph 2 mph 57% 0 in 44 W/m2
08:51 72.9 °F 56.7 °F 30 in Calm   2 mph 57% 0 in 44 W/m2
08:56 73.4 °F 57.2 °F 30 in ENE 0.9 mph 2 mph 57% 0 in 42 W/m2
09:01 73.6 °F 56.8 °F 30 in North 0.9 mph 2 mph 56% 0 in 42 W/m2
09:06 73 °F 56.8 °F 30 in Calm   1 mph 57% 0 in 40 W/m2
09:11 73.6 °F 57.4 °F 30 in Calm   2 mph 57% 0 in 40 W/m2
09:16 74.1 °F 56.8 °F 30 in North 0.9 mph 2 mph 55% 0 in 40 W/m2
09:21 73.9 °F 57.2 °F 30 in North 2 mph 3 mph 56% 0 in 42 W/m2
09:26 74.1 °F 57.9 °F 30 in NNE 0.9 mph 2 mph 57% 0 in 40 W/m2
09:31 74.7 °F 57.9 °F 30 in WSW 2 mph 3 mph 56% 0 in 40 W/m2
09:36 74.8 °F 57 °F 30 in SSW 2 mph 4 mph 54% 0 in 40 W/m2
09:41 75 °F 57.2 °F 30 in West 0.9 mph 2 mph 54% 0 in 40 W/m2
09:46 75.6 °F 57.2 °F 30 in ENE 0.9 mph 4 mph 53% 0 in 42 W/m2
09:51 75.7 °F 56.3 °F 30 in NW 2.9 mph 5 mph 51% 0 in 44 W/m2
09:56 75.6 °F 56.1 °F 30 in WNW 2 mph 2 mph 51% 0 in 162 W/m2
10:01 75.6 °F 56.1 °F 30 in West 6.9 mph 7 mph 51% 0 in 439 W/m2
10:06 75.6 °F 55.6 °F 30 in NW 0.9 mph 3 mph 50% 0 in 587 W/m2
10:11 75.7 °F 56.8 °F 30 in WSW 0.9 mph 4 mph 52% 0 in 573 W/m2
10:16 75.9 °F 57 °F 30 in West 4 mph 5 mph 52% 0 in 42 W/m2
10:21 75.7 °F 56.3 °F 30 in North 2 mph 9 mph 51% 0 in 153 W/m2
10:26 75.7 °F 55.8 °F 30 in NW 0.9 mph 5 mph 50% 0 in 635 W/m2
10:31 76.1 °F 56.7 °F 30 in East 2.9 mph 8 mph 51% 0 in 622 W/m2
10:36 76.5 °F 54.7 °F 30 in North 2 mph 5 mph 47% 0 in 671 W/m2
10:41 76.5 °F 54.7 °F 30 in NE 2 mph 2 mph 47% 0 in 693 W/m2
10:46 76.6 °F 54.3 °F 30 in ENE 2 mph 6 mph 46% 0 in 698 W/m2
10:51 76.6 °F 54.9 °F 30 in SSW 0.9 mph 7 mph 47% 0 in 703 W/m2
10:56 77.2 °F 54.9 °F 30 in NW 4.9 mph 5 mph 46% 0 in 717 W/m2
11:01 77.2 °F 54.1 °F 30 in NW 2 mph 7 mph 45% 0 in 696 W/m2
11:06 77.4 °F 54.3 °F 30 in West 6 mph 8 mph 45% 0 in 744 W/m2
11:11 77.7 °F 55.2 °F 30 in Calm   2 mph 46% 0 in 752 W/m2
11:16 78.4 °F 54.7 °F 30 in Calm   3 mph 44% 0 in 761 W/m2
11:21 78.4 °F 54.1 °F 30 in WNW 2 mph 6 mph 43% 0 in 773 W/m2
11:26 78.4 °F 54.1 °F 30 in NW 2.9 mph 9 mph 43% 0 in 788 W/m2
11:31 78.4 °F 52.7 °F 30 in WNW 4 mph 12 mph 41% 0 in 768 W/m2
11:36 78.1 °F 53.1 °F 30 in West 2 mph 7 mph 42% 0 in 805 W/m2
11:41 78.3 °F 53.2 °F 30 in NW 2 mph 10 mph 42% 0 in 821 W/m2
11:46 78.3 °F 54 °F 30 in NW 2 mph 6 mph 43% 0 in 779 W/m2
11:51 78.4 °F 53.4 °F 30 in East 2 mph 5 mph 42% 0 in 856 W/m2
11:56 78.6 °F 54.3 °F 30 in WSW 2.9 mph 6 mph 43% 0 in 773 W/m2
12:01 79 °F 55.2 °F 30 in WSW 0.9 mph 7 mph 44% 0 in 819 W/m2
12:06 79.3 °F 54.3 °F 30 in East 2 mph 4 mph 42% 0 in 830 W/m2
12:11 79.5 °F 53.8 °F 30 in West 2.9 mph 4 mph 41% 0 in 875 W/m2
12:16 79.9 °F 54.1 °F 30 in SE 0.9 mph 4 mph 41% 0 in 896 W/m2
12:21 79.9 °F 54.1 °F 30 in NW 2.9 mph 5 mph 41% 0 in 828 W/m2
12:26 80.1 °F 53.6 °F 30 in West 4 mph 10 mph 40% 0 in 898 W/m2
12:31 80.2 °F 54.3 °F 30 in West 0.9 mph 4 mph 41% 0 in 944 W/m2
12:36 79.9 °F 54.1 °F 30 in WSW 2.9 mph 10 mph 41% 0 in 826 W/m2
12:41 79.7 °F 54 °F 30 in East 2 mph 4 mph 41% 0 in 863 W/m2
12:46 80.2 °F 55 °F 30 in NW 2.9 mph 4 mph 42% 0 in 967 W/m2
12:51 80.4 °F 54 °F 30 in SE 2.9 mph 5 mph 40% 0 in 884 W/m2
12:56 80.4 °F 54 °F 30 in WNW 4 mph 11 mph 40% 0 in 918 W/m2
13:01 80.8 °F 54.9 °F 30 in WNW 12.1 mph 12 mph 41% 0 in 928 W/m2
13:06 81 °F 52.9 °F 30 in West 10.1 mph 12 mph 38% 0 in 918 W/m2
13:11 81 °F 52.9 °F 30 in WSW 2.9 mph 8 mph 38% 0 in 979 W/m2
13:16 81.3 °F 54.7 °F 30 in SE 0.9 mph 12 mph 40% 0 in 990 W/m2
13:22 81.1 °F 52.3 °F 30 in NNE 2 mph 10 mph 37% 0 in 956 W/m2
13:27 81.1 °F 53.1 °F 30 in SE 4 mph 7 mph 38% 0 in 951 W/m2
13:32 81.3 °F 53.2 °F 30 in NNW 2.9 mph 8 mph 38% 0 in 933 W/m2
13:37 81.5 °F 52.7 °F 30 in West 4 mph 8 mph 37% 0 in 932 W/m2
13:42 81.5 °F 52.7 °F 30 in NW 0.9 mph 4 mph 37% 0 in 991 W/m2
13:47 81.7 °F 53.6 °F 30 in West 4 mph 8 mph 38% 0 in 960 W/m2
13:52 81.7 °F 53.6 °F 30 in West 4 mph 9 mph 38% 0 in 974 W/m2
13:57 81.3 °F 54 °F 30 in West 6.9 mph 8 mph 39% 0 in 1018 W/m2
14:02 81.7 °F 55.8 °F 30 in West 2 mph 10 mph 41% 0 in 1009 W/m2
14:07 82 °F 55.9 °F 30 in NNW 6 mph 8 mph 41% 0 in 962 W/m2
14:12 82 °F 55.4 °F 30 in NW 4.9 mph 11 mph 40% 0 in 970 W/m2
14:17 81.9 °F 53.8 °F 30 in WNW 6.9 mph 13 mph 38% 0 in 1042 W/m2
14:22 81.7 °F 54.3 °F 30 in SW 4.9 mph 6 mph 39% 0 in 1035 W/m2
14:27 81.9 °F 54.5 °F 30 in NW 4 mph 7 mph 39% 0 in 1000 W/m2
14:32 82 °F 54 °F 30 in SW 2 mph 7 mph 38% 0 in 258 W/m2
14:37 82.4 °F 54.3 °F 30 in West 2.9 mph 9 mph 38% 0 in 287 W/m2
14:42 82.2 °F 54.1 °F 30 in West 6.9 mph 7 mph 38% 0 in 1023 W/m2
14:47 82 °F 54 °F 30 in WNW 0.9 mph 2 mph 38% 0 in 540 W/m2
14:52 82.6 °F 55 °F 30 in ENE 2 mph 4 mph 39% 0 in 991 W/m2
14:57 82.6 °F 55 °F 30 in WNW 2 mph 4 mph 39% 0 in 1002 W/m2
15:02 82.6 °F 53.6 °F 30 in WNW 4.9 mph 14 mph 37% 0 in 949 W/m2
15:07 82.6 °F 54.3 °F 30 in SE 0.9 mph 3 mph 38% 0 in 919 W/m2
15:12 82.6 °F 53.6 °F 30 in WNW 4 mph 10 mph 37% 0 in 896 W/m2
15:17 82 °F 53.2 °F 30 in South 4 mph 14 mph 37% 0 in 926 W/m2
15:22 81.5 °F 54.1 °F 30 in SW 4.9 mph 10 mph 39% 0 in 881 W/m2
15:27 81.7 °F 54.3 °F 30 in West 6.9 mph 14 mph 39% 0 in 912 W/m2
15:32 82.2 °F 54.9 °F 30 in WNW 6.9 mph 9 mph 39% 0 in 877 W/m2
15:37 82.2 °F 54.9 °F 30 in WNW 4 mph 8 mph 39% 0 in 870 W/m2
15:42 82.6 °F 54.3 °F 30 in West 6.9 mph 14 mph 38% 0 in 877 W/m2
15:47 82.4 °F 55 °F 30 in WSW 4.9 mph 10 mph 39% 0 in 874 W/m2
15:52 82.8 °F 54.5 °F 30 in West 4 mph 12 mph 38% 0 in 817 W/m2
15:57 83.5 °F 55.2 °F 30 in WSW 6.9 mph 7 mph 38% 0 in 844 W/m2
16:02 82.8 °F 54.5 °F 30 in NW 4 mph 10 mph 38% 0 in 141 W/m2
16:07 82.6 °F 54.3 °F 30 in West 4 mph 12 mph 38% 0 in 911 W/m2
16:12 82.8 °F 54.5 °F 30 in NW 0.9 mph 10 mph 38% 0 in 888 W/m2
16:17 82.2 °F 54.9 °F 30 in WSW 2.9 mph 8 mph 39% 0 in 865 W/m2
16:22 82.4 °F 55 °F 30 in NW 2 mph 8 mph 39% 0 in 782 W/m2
16:27 82.6 °F 55 °F 30 in West 8.1 mph 8 mph 39% 0 in 809 W/m2
16:32 82.6 °F 57.2 °F 30 in WNW 6.9 mph 12 mph 42% 0 in 770 W/m2
16:37 82.4 °F 58.3 °F 30 in WNW 4 mph 9 mph 44% 0 in 786 W/m2
16:42 81.9 °F 55.2 °F 30 in West 4 mph 10 mph 40% 0 in 780 W/m2
16:47 82 °F 57.9 °F 30 in WNW 6.9 mph 9 mph 44% 0 in 772 W/m2
16:52 81.9 °F 58.5 °F 30 in West 6.9 mph 11 mph 45% 0 in 114 W/m2
16:57 81.1 °F 58.5 °F 30 in West 6.9 mph 12 mph 46% 0 in 717 W/m2
17:02 80.8 °F 58.1 °F 30 in WNW 4 mph 8 mph 46% 0 in 668 W/m2
17:07 81 °F 58.8 °F 30 in WNW 8.9 mph 12 mph 47% 0 in 617 W/m2
17:12 80.6 °F 58.5 °F 30 in NW 11 mph 13 mph 47% 0 in 684 W/m2
17:17 80.4 °F 58.3 °F 30 in West 6 mph 12 mph 47% 0 in 640 W/m2
17:22 80.1 °F 58.6 °F 30 in NW 11 mph 13 mph 48% 0 in 640 W/m2
17:27 80.2 °F 58.1 °F 30 in NNW 8.1 mph 9 mph 47% 0 in 638 W/m2
17:32 80.2 °F 58.1 °F 30 in NW 2.9 mph 8 mph 47% 0 in 624 W/m2
17:37 80.4 °F 57.7 °F 30 in SW 13 mph 13 mph 46% 0 in 612 W/m2
17:42 80.2 °F 57.6 °F 30 in WNW 10.1 mph 11 mph 46% 0 in 591 W/m2
17:47 80.2 °F 58.1 °F 30 in NW 2.9 mph 10 mph 47% 0 in 596 W/m2
17:52 80.2 °F 58.1 °F 30 in NW 2 mph 6 mph 47% 0 in 531 W/m2
17:57 80.2 °F 57.6 °F 30 in WSW 8.9 mph 12 mph 46% 0 in 536 W/m2
18:02 80.1 °F 58.1 °F 30 in NNW 6 mph 9 mph 47% 0 in 541 W/m2
18:07 80.1 °F 58.6 °F 30 in West 8.9 mph 14 mph 48% 0 in 512 W/m2
18:12 79.9 °F 58.5 °F 30 in WSW 2.9 mph 9 mph 48% 0 in 510 W/m2
18:17 80.1 °F 58.6 °F 30 in WNW 2.9 mph 14 mph 48% 0 in 513 W/m2
18:22 80.1 °F 58.1 °F 30 in WNW 6 mph 13 mph 47% 0 in 496 W/m2
18:27 79.9 °F 57.9 °F 30 in WNW 11 mph 11 mph 47% 0 in 466 W/m2
18:32 79.5 °F 57.6 °F 30 in SSW 8.1 mph 13 mph 47% 0 in 413 W/m2
18:37 79 °F 57.6 °F 30 in WNW 4.9 mph 11 mph 48% 0 in 380 W/m2
18:42 78.8 °F 57.4 °F 30 in West 11 mph 11 mph 48% 0 in 364 W/m2
18:47 78.6 °F 56.7 °F 30 in WSW 6.9 mph 10 mph 47% 0 in 336 W/m2
18:52 78.4 °F 57.2 °F 30 in West 6 mph 9 mph 48% 0 in 178 W/m2
18:57 78.6 °F 57.2 °F 30 in NW 4.9 mph 9 mph 48% 0 in 62 W/m2
19:02 78.4 °F 57.2 °F 30 in SW 6.9 mph 9 mph 48% 0 in 56 W/m2
19:07 78.4 °F 57.2 °F 30 in WSW 8.1 mph 13 mph 48% 0 in 63 W/m2
19:12 78.1 °F 56.8 °F 30 in WNW 2.9 mph 10 mph 48% 0 in 63 W/m2
19:17 77.9 °F 56.7 °F 30 in West 8.9 mph 14 mph 48% 0 in 60 W/m2
19:22 77.7 °F 56.5 °F 30 in West 8.1 mph 11 mph 48% 0 in 56 W/m2
19:27 77.4 °F 56.1 °F 30 in WNW 4.9 mph 14 mph 48% 0 in 53 W/m2
19:32 77.2 °F 56.5 °F 30 in WSW 4 mph 9 mph 49% 0 in 51 W/m2
19:37 76.8 °F 56.3 °F 30 in West 2 mph 8 mph 49% 0 in 54 W/m2
19:42 76.8 °F 56.3 °F 30 in WSW 10.1 mph 14 mph 49% 0 in 58 W/m2
19:47 76.5 °F 55.9 °F 30 in WNW 4 mph 10 mph 49% 0 in 56 W/m2
19:52 76.5 °F 55.9 °F 30 in WSW 4 mph 13 mph 49% 0 in 56 W/m2
19:57 76.5 °F 56.5 °F 30 in NW 2 mph 10 mph 50% 0 in 51 W/m2
20:02 76.5 °F 56.5 °F 30 in WSW 4 mph 9 mph 50% 0 in 158 W/m2
20:07 76.1 °F 56.7 °F 30 in WSW 8.9 mph 9 mph 51% 0 in 44 W/m2
20:12 75.7 °F 56.3 °F 30 in NW 11 mph 12 mph 51% 0 in 42 W/m2
20:17 75.6 °F 56.1 °F 30 in NNW 2.9 mph 9 mph 51% 0 in 40 W/m2
20:22 75.4 °F 56.5 °F 30 in WSW 8.1 mph 11 mph 52% 0 in 39 W/m2
20:27 75 °F 55.6 °F 30 in WNW 4 mph 12 mph 51% 0 in 39 W/m2
20:32 74.8 °F 56.1 °F 30 in NW 4 mph 10 mph 52% 0 in 37 W/m2
20:37 74.7 °F 55.9 °F 30 in WNW 4.9 mph 12 mph 52% 0 in 35 W/m2
20:42 74.3 °F 55.6 °F 30 in NW 8.1 mph 11 mph 52% 0 in 32 W/m2
20:47 74.1 °F 55.9 °F 30 in WNW 6.9 mph 8 mph 53% 0 in 46 W/m2
20:52 73.9 °F 55.8 °F 30 in WNW 2.9 mph 10 mph 53% 0 in 58 W/m2
20:57 73.8 °F 56.1 °F 30 in WSW 6.9 mph 8 mph 54% 0 in 53 W/m2
21:02 73.4 °F 55.8 °F 30 in NW 0.9 mph 8 mph 54% 0 in 44 W/m2
21:07 73.2 °F 55.6 °F 30 in NW 2.9 mph 7 mph 54% 0 in 37 W/m2
21:12 73 °F 55.4 °F 30 in WNW 2.9 mph 9 mph 54% 0 in 28 W/m2
21:17 72.7 °F 55 °F 30 in NNW 4 mph 11 mph 54% 0 in 14 W/m2
21:22 72.1 °F 55 °F 30 in WSW 6 mph 9 mph 55% 0 in 12 W/m2
21:28 71.8 °F 55.2 °F 30 in West 2.9 mph 6 mph 56% 0 in 11 W/m2
21:33 71.4 °F 54.9 °F 30 in WNW 4 mph 8 mph 56% 0 in 7 W/m2
21:38 71.2 °F 55.2 °F 30 in WSW 4 mph 6 mph 57% 0 in 5 W/m2
21:43 70.9 °F 54.9 °F 30 in WSW 2 mph 8 mph 57% 0 in 5 W/m2
21:48 70.5 °F 55 °F 30 in WSW 4 mph 4 mph 58% 0 in 0 W/m2
21:53 70.3 °F 54.9 °F 30 in West 2 mph 4 mph 58% 0 in 0 W/m2
21:58 70.2 °F 54.7 °F 30 in WSW 2 mph 7 mph 58% 0 in 0 W/m2
22:03 69.8 °F 54.9 °F 30 in WNW 6.9 mph 8 mph 59% 0 in 0 W/m2
22:08 69.6 °F 54.7 °F 30 in SW 4 mph 10 mph 59% 0 in 0 W/m2
22:13 69.4 °F 54.5 °F 30.1 in West 2.9 mph 8 mph 59% 0 in 0 W/m2
22:18 69.4 °F 54.5 °F 30.1 in WNW 2.9 mph 6 mph 59% 0 in 0 W/m2
22:23 69.3 °F 54.3 °F 30.1 in SW 8.1 mph 9 mph 59% 0 in 0 W/m2
22:28 69.1 °F 54.1 °F 30.1 in WNW 2.9 mph 6 mph 59% 0 in 0 W/m2
22:33 68.7 °F 53.8 °F 30.1 in West 2.9 mph 4 mph 59% 0 in 0 W/m2
22:38 68.5 °F 54.1 °F 30.1 in WSW 2.9 mph 7 mph 60% 0 in 0 W/m2
22:43 68.4 °F 54 °F 30.1 in West 4 mph 9 mph 60% 0 in 0 W/m2
22:48 68.2 °F 54.1 °F 30.1 in NW 2 mph 6 mph 61% 0 in 0 W/m2
22:53 67.8 °F 54 °F 30.1 in NW 2.9 mph 9 mph 61% 0 in 0 W/m2
22:58 67.6 °F 53.8 °F 30.1 in West 2 mph 4 mph 61% 0 in 0 W/m2
23:03 67.5 °F 54 °F 30.1 in WSW 2.9 mph 4 mph 62% 0 in 0 W/m2
23:08 67.3 °F 54.3 °F 30.1 in West 2 mph 4 mph 63% 0 in 0 W/m2
23:13 66.9 °F 54 °F 30.1 in West 2.9 mph 3 mph 63% 0 in 0 W/m2
23:18 66.6 °F 54 °F 30.1 in West 2.9 mph 4 mph 64% 0 in 0 W/m2
23:23 66.4 °F 53.8 °F 30.1 in West 2 mph 6 mph 64% 0 in 0 W/m2
23:28 66.2 °F 54.1 °F 30.1 in WSW 2.9 mph 3 mph 65% 0 in 0 W/m2
23:33 65.8 °F 53.8 °F 30.1 in West 0.9 mph 3 mph 65% 0 in 0 W/m2
23:38 65.5 °F 53.8 °F 30.1 in West 2 mph 3 mph 66% 0 in 0 W/m2
23:43 65.1 °F 53.4 °F 30.1 in WSW 2 mph 4 mph 66% 0 in 0 W/m2
23:48 64.9 °F 53.8 °F 30.1 in West 2 mph 3 mph 67% 0 in 0 W/m2
23:53 64.8 °F 53.6 °F 30.1 in West 6 mph 6 mph 67% 0 in 0 W/m2
23:58 64.9 °F 53.8 °F 30.1 in West 2 mph 5 mph 67% 0 in 0 W/m2
Juneau County Weather
Compliments of Weather Underground - 4 mb